[[{"header":{"parameterUnit":"m.s-1","parameterCategory":1,"la1":30.2991,"la2":30.254,"lo1":-89.0895,"lo2":-89.0444,"dy":0.0017,"dx":0.0017,"nx":28,"ny":28,"refTime":"2024-07-05T09:00:00:Z","depth":0,"parameterNumber":2,"parameterNumberName":"U-component_of_WINDS"},"data":[0,0,0,0,0,0,0,0,0,0,0,0,0,0,0,0,0,0,0,0,0,0,0,0,0,0,0,0,0,0,0,0,0,0,0,0,0,0,0,0,0,0,0,0,0,0,0,0,0,0,0,0,0,0,0,0,0,0,3.5206,3.5208,0,3.5325,3.5326,3.5328,3.5297,3.5294,3.5292,3.529,3.5412,3.5417,3.5422,0,0,0,0,0,0,0,0,0,0,0,0,0,3.4952,3.4957,3.5206,3.5208,3.5209,3.5325,3.5326,3.5328,3.5297,3.5294,3.5291,3.5289,3.541,3.5416,3.5423,0,0,0,0,0,0,0,0,0,0,0,0,0,3.5066,3.4959,3.5206,3.5208,3.5209,3.5324,3.5326,3.5328,3.5298,3.5294,3.5291,3.5287,3.5408,3.5416,3.5424,3.5545,0,0,3.5449,3.5452,0,0,0,0,0,0,0,0,3.506,3.5075,3.5206,3.5208,3.5209,3.5292,3.5282,3.5401,3.5299,3.5264,3.529,3.5286,3.5375,3.5385,3.5416,3.5551,3.5556,3.5449,3.5454,3.5458,3.546,0,0,0,0,0,0,0,3.5052,3.507,3.5253,3.5208,3.521,3.5202,3.5215,3.5304,3.5338,3.5267,3.5265,3.5279,3.5375,3.5408,3.5418,3.5558,3.5449,3.5456,3.5461,3.5465,3.5797,3.5801,0,0,0,0,0,0,3.5043,3.5064,3.5249,3.5257,3.5124,3.521,3.5224,3.5269,3.5337,3.5344,3.5282,3.5277,3.5396,3.5409,3.5422,3.5568,3.5458,3.5465,3.547,3.5794,3.5798,3.5803,0,0,0,0,0,0,3.5037,3.5059,3.5245,3.516,3.5183,3.5218,3.527,3.5274,3.5306,3.5348,3.5354,3.5309,3.5393,3.5411,3.5514,3.5572,3.5469,3.5477,3.5789,3.5795,3.58,3.5861,0,0,0,0,0,0,3.503,3.5058,3.5104,3.5161,3.5187,3.5335,3.5273,3.5278,3.532,3.5315,3.5375,3.5382,3.5392,3.5502,3.5523,3.5581,3.5483,3.5784,3.5792,3.5799,3.5854,3.5868,3.588,0,0,0,0,0,3.5021,3.5117,3.5107,3.5129,3.5246,3.5338,3.5353,3.5363,3.5325,3.5372,3.5399,3.538,3.5562,3.5513,3.5536,3.5598,3.578,3.5789,3.5798,3.5848,3.5865,3.588,0,0,0,0,0,0,3.5066,3.5124,3.5114,3.523,3.528,3.5333,3.5392,3.5381,3.5442,3.5434,3.5444,3.5457,3.5563,3.5591,3.5535,3.5718,3.5666,3.568,3.5696,3.5713,3.5726,3.5717,3.549,0,0,0,0,0,3.5089,3.5159,3.5206,3.5305,3.533,3.5357,3.5397,3.54,3.5452,3.5472,3.5507,3.5558,3.5626,3.5671,3.5737,3.5858,3.587,3.5911,3.5925,3.5935,3.5947,3.6012,3.6031,3.5832,3.5832,3.5831,0,0,3.5138,3.5179,3.5222,3.5315,3.5353,3.5425,3.5375,3.5453,3.5507,3.5484,3.5584,3.5611,3.5668,3.5781,3.5832,3.5807,3.6005,3.5947,3.5955,3.5961,3.6023,3.6042,3.6059,3.5838,3.5837,3.5836,0,0,3.5264,3.5302,3.5388,3.5427,3.5486,3.5504,3.5524,3.5579,3.5597,3.5697,3.5681,3.5745,3.5863,3.5904,3.5941,3.6082,3.6067,3.6103,3.6172,3.6235,3.6251,3.6265,3.6315,3.6332,3.6115,3.6115,3.6115,0,3.5318,3.5425,3.5434,3.5513,3.5554,3.5537,3.5624,3.5662,3.5739,3.5768,3.5739,3.5886,3.5924,3.6045,3.608,3.611,3.6133,3.6096,3.6248,3.6262,3.6275,3.6323,3.6342,3.6119,3.6119,3.6118,3.6118,0,3.5488,3.5563,3.5625,3.57,3.5748,3.5831,3.5852,3.5899,3.5898,3.5918,3.602,3.6064,3.6138,3.6167,3.6167,3.6289,3.6272,3.6246,3.6193,3.6298,3.6343,3.6361,3.6125,3.6123,3.6122,3.6121,0,0,3.5645,3.5723,3.5746,3.5779,3.5843,3.5901,3.5983,3.6055,3.6095,3.6149,3.6218,3.6318,3.6294,3.6335,3.634,3.6396,3.6504,3.6362,3.6364,3.6386,3.664,3.6659,3.668,3.6494,3.6498,3.6501,3.6635,0,3.5776,3.592,3.593,3.606,3.6129,3.6114,3.6186,3.6232,3.6254,3.6315,3.6339,3.6409,3.6373,3.6397,3.6452,3.6479,3.6555,3.647,3.6558,3.6561,3.6543,3.6703,3.6723,3.6848,3.6652,3.6655,3.6658,0,3.5948,3.6007,3.6144,3.6197,3.6227,3.6291,3.6357,3.6416,3.6469,3.648,3.6526,3.6523,3.6606,3.6552,3.6667,3.6609,3.6646,3.6664,3.6669,3.6677,3.6615,3.6714,3.6888,3.6906,3.6685,3.6683,3.6681,0,3.6048,3.6162,3.6258,3.6287,3.6352,3.6397,3.6426,3.6475,3.6518,3.6576,3.6603,3.6671,3.6707,3.676,3.6774,3.6733,3.6889,3.6835,3.69,3.69,3.6933,3.6931,3.7114,3.6959,3.6958,3.6958,3.6958,0,3.6193,3.6277,3.6304,3.6363,3.6457,3.6467,3.656,3.6586,3.663,3.6694,3.6685,3.6745,3.6761,3.6824,3.6836,3.6929,3.6946,3.6958,3.696,3.6958,3.6957,3.6982,3.6973,3.6963,3.6962,3.6961,3.696,0,3.632,3.6342,3.6446,3.6498,3.6513,3.658,3.6625,3.6682,3.6702,3.6783,3.6802,3.6834,3.6907,3.6927,3.7016,3.7024,3.7133,3.7128,3.7116,3.7115,3.7179,3.7172,3.7384,3.7412,3.7239,3.724,3.7242,0,3.6411,3.6475,3.6535,3.6577,3.6608,3.6676,3.6719,3.6731,3.6777,3.6841,3.689,3.6963,3.7021,3.714,3.717,3.7238,3.7233,3.7303,3.7243,3.7239,3.7233,3.7229,3.7235,3.7314,3.7316,3.7317,3.7318,0,3.6569,3.6576,3.6639,3.6705,3.6757,3.681,3.686,3.6895,3.6915,3.6966,3.7041,3.7087,3.7177,3.7249,3.7317,3.7347,3.7336,3.7337,3.7355,3.7354,3.7344,3.7349,3.7145,3.7332,3.7331,3.733,3.7329,3.7328,3.6681,3.6737,3.6787,3.6857,3.6896,3.6943,3.6999,3.7026,3.7089,3.7163,3.7166,3.7248,3.7298,3.7388,3.7422,3.7486,3.7465,3.7492,3.7498,3.7505,3.7509,3.7334,3.7498,3.7498,3.7497,3.7497,3.7497,0,3.6838,3.6869,3.6933,3.7004,3.7059,3.7044,3.7099,3.7146,3.7217,3.7265,3.7323,3.7409,3.7479,3.7515,3.7584,3.7628,3.7625,3.7645,3.7642,3.7649,3.7525,3.7501,3.7647,3.7647,3.7647,3.7647,3.7647,3.7647,3.6926,3.702,3.7033,3.7146,3.7177,3.7257,3.7289,3.7333,3.7371,3.7467,3.7525,3.7548,3.7591,3.7663,3.7726,3.7734,3.776,3.7783,3.7789,3.7673,3.7658,3.7643,3.7621,3.7789,3.7789,3.7908,3.7909,3.791]},{"header":{"parameterUnit":"m.s-1","parameterCategory":1,"la1":30.2991,"la2":30.254,"lo1":-89.0895,"lo2":-89.0444,"dy":0.0017,"dx":0.0017,"nx":28,"ny":28,"refTime":"2024-07-05T09:00:00:Z","depth":0,"parameterNumber":3,"parameterNumberName":"V-component_of_WINDS"},"data":[0,0,0,0,0,0,0,0,0,0,0,0,0,0,0,0,0,0,0,0,0,0,0,0,0,0,0,0,0,0,0,0,0,0,0,0,0,0,0,0,0,0,0,0,0,0,0,0,0,0,0,0,0,0,0,0,0,0,-0.0797,-0.0797,0,-0.0795,-0.0795,-0.0795,-0.0796,-0.0796,-0.0796,-0.0796,-0.0794,-0.0794,-0.0794,0,0,0,0,0,0,0,0,0,0,0,0,0,-0.0802,-0.0802,-0.0797,-0.0797,-0.0797,-0.0795,-0.0795,-0.0795,-0.0796,-0.0796,-0.0796,-0.0796,-0.0794,-0.0794,-0.0794,0,0,0,0,0,0,0,0,0,0,0,0,0,-0.08,-0.0802,-0.0797,-0.0797,-0.0797,-0.0795,-0.0795,-0.0795,-0.0796,-0.0796,-0.0796,-0.0796,-0.0794,-0.0794,-0.0794,-0.0792,0,0,-0.0794,-0.0794,0,0,0,0,0,0,0,0,-0.08,-0.08,-0.0797,-0.0797,-0.0797,-0.0796,-0.0796,-0.0794,-0.0796,-0.0796,-0.0796,-0.0796,-0.0795,-0.0795,-0.0794,-0.0792,-0.0791,-0.0794,-0.0794,-0.0793,-0.0793,0,0,0,0,0,0,0,-0.08,-0.08,-0.0796,-0.0797,-0.0797,-0.0798,-0.0797,-0.0796,-0.0795,-0.0796,-0.0797,-0.0796,-0.0795,-0.0794,-0.0794,-0.0791,-0.0794,-0.0794,-0.0793,-0.0793,-0.0788,-0.0788,0,0,0,0,0,0,-0.08,-0.08,-0.0796,-0.0796,-0.0799,-0.0798,-0.0797,-0.0796,-0.0795,-0.0795,-0.0796,-0.0796,-0.0794,-0.0794,-0.0794,-0.0792,-0.0793,-0.0793,-0.0793,-0.0788,-0.0788,-0.0788,0,0,0,0,0,0,-0.08,-0.08,-0.0796,-0.0798,-0.0798,-0.0797,-0.0796,-0.0796,-0.0796,-0.0795,-0.0795,-0.0796,-0.0794,-0.0794,-0.0792,-0.0792,-0.0793,-0.0793,-0.0788,-0.0788,-0.0788,-0.0786,0,0,0,0,0,0,-0.0801,-0.08,-0.0799,-0.0798,-0.0798,-0.0794,-0.0796,-0.0796,-0.0795,-0.0795,-0.0795,-0.0794,-0.0795,-0.0793,-0.0792,-0.0791,-0.0793,-0.0788,-0.0788,-0.0788,-0.0787,-0.0786,-0.0786,0,0,0,0,0,-0.0801,-0.0798,-0.0799,-0.0798,-0.0796,-0.0794,-0.0794,-0.0794,-0.0795,-0.0794,-0.0794,-0.0794,-0.0792,-0.0793,-0.0792,-0.0791,-0.0788,-0.0788,-0.0788,-0.0787,-0.0786,-0.0786,0,0,0,0,0,0,-0.0798,-0.0798,-0.0799,-0.0795,-0.0795,-0.0795,-0.0793,-0.0794,-0.0793,-0.0793,-0.0793,-0.0793,-0.0792,-0.0791,-0.0792,-0.0789,-0.079,-0.079,-0.0789,-0.0789,-0.0789,-0.0789,-0.0793,0,0,0,0,0,-0.0797,-0.0796,-0.0796,-0.0793,-0.0793,-0.0793,-0.0792,-0.0793,-0.0792,-0.0792,-0.0792,-0.0791,-0.0791,-0.079,-0.0789,-0.0787,-0.0787,-0.0786,-0.0786,-0.0786,-0.0785,-0.0785,-0.0785,-0.0788,-0.0788,-0.0788,0,0,-0.0795,-0.0795,-0.0794,-0.0793,-0.0792,-0.0791,-0.0793,-0.0791,-0.0791,-0.0792,-0.079,-0.079,-0.079,-0.0788,-0.0787,-0.0788,-0.0785,-0.0786,-0.0785,-0.0785,-0.0785,-0.0785,-0.0785,-0.0788,-0.0788,-0.0788,0,0,-0.0791,-0.0791,-0.0789,-0.0789,-0.0789,-0.0789,-0.0789,-0.0788,-0.0788,-0.0787,-0.0788,-0.0788,-0.0786,-0.0786,-0.0786,-0.0783,-0.0784,-0.0783,-0.0782,-0.0782,-0.0781,-0.0781,-0.0781,-0.0781,-0.0783,-0.0783,-0.0783,0,-0.0789,-0.0787,-0.0788,-0.0787,-0.0786,-0.0788,-0.0786,-0.0786,-0.0786,-0.0786,-0.0786,-0.0785,-0.0785,-0.0784,-0.0783,-0.0783,-0.0783,-0.0783,-0.0781,-0.0781,-0.0781,-0.0781,-0.078,-0.0783,-0.0783,-0.0783,-0.0783,0,-0.0784,-0.0783,-0.0782,-0.0782,-0.0781,-0.078,-0.0781,-0.0781,-0.0781,-0.0782,-0.0781,-0.0781,-0.0781,-0.0781,-0.0781,-0.078,-0.078,-0.0781,-0.0782,-0.0781,-0.078,-0.078,-0.0783,-0.0783,-0.0783,-0.0783,0,0,-0.0777,-0.0779,-0.0778,-0.0779,-0.0779,-0.0778,-0.0778,-0.0778,-0.0777,-0.0777,-0.0777,-0.0776,-0.0778,-0.0777,-0.0778,-0.0778,-0.0777,-0.0779,-0.0779,-0.0779,-0.0776,-0.0776,-0.0775,-0.0778,-0.0778,-0.0778,-0.0777,0,-0.0773,-0.0772,-0.0773,-0.0772,-0.0771,-0.0773,-0.0773,-0.0773,-0.0774,-0.0774,-0.0775,-0.0775,-0.0776,-0.0776,-0.0776,-0.0777,-0.0777,-0.0777,-0.0778,-0.0778,-0.0777,-0.0775,-0.0774,-0.0773,-0.0776,-0.0776,-0.0776,0,-0.0768,-0.0769,-0.0767,-0.0769,-0.0768,-0.0768,-0.0769,-0.0768,-0.0769,-0.077,-0.0771,-0.0772,-0.0772,-0.0774,-0.0774,-0.0774,-0.0775,-0.0776,-0.0776,-0.0775,-0.0777,-0.0775,-0.0773,-0.0772,-0.0776,-0.0776,-0.0776,0,-0.0764,-0.0764,-0.0763,-0.0763,-0.0765,-0.0765,-0.0766,-0.0767,-0.0767,-0.0768,-0.0768,-0.0769,-0.0769,-0.077,-0.0772,-0.0773,-0.0773,-0.0774,-0.0773,-0.0773,-0.0773,-0.0773,-0.077,-0.0773,-0.0773,-0.0773,-0.0773,0,-0.0759,-0.0758,-0.0761,-0.0761,-0.076,-0.0762,-0.0761,-0.0762,-0.0764,-0.0764,-0.0766,-0.0766,-0.0769,-0.0769,-0.0771,-0.0771,-0.0772,-0.0772,-0.0773,-0.0772,-0.0772,-0.0772,-0.0772,-0.0773,-0.0773,-0.0773,-0.0773,0,-0.0753,-0.0755,-0.0755,-0.0757,-0.0758,-0.0757,-0.0759,-0.0759,-0.0761,-0.0761,-0.0761,-0.0764,-0.0765,-0.0767,-0.0768,-0.077,-0.077,-0.077,-0.0769,-0.077,-0.0769,-0.0769,-0.0767,-0.0767,-0.077,-0.077,-0.0769,0,-0.075,-0.075,-0.0752,-0.0752,-0.0753,-0.0754,-0.0754,-0.0757,-0.0758,-0.076,-0.0759,-0.0761,-0.0762,-0.0764,-0.0766,-0.0767,-0.0768,-0.0767,-0.0768,-0.0768,-0.0768,-0.0768,-0.0769,-0.0767,-0.0767,-0.0767,-0.0767,0,-0.0744,-0.0746,-0.0746,-0.0748,-0.0749,-0.075,-0.0751,-0.0751,-0.0754,-0.0755,-0.0756,-0.0757,-0.076,-0.0761,-0.0763,-0.0764,-0.0766,-0.0766,-0.0766,-0.0766,-0.0765,-0.0766,-0.0769,-0.0766,-0.0766,-0.0766,-0.0766,-0.0766,-0.074,-0.074,-0.0742,-0.0743,-0.0745,-0.0746,-0.0746,-0.0748,-0.075,-0.0751,-0.0753,-0.0754,-0.0757,-0.076,-0.0761,-0.0763,-0.0764,-0.0763,-0.0763,-0.0763,-0.0763,-0.0765,-0.0763,-0.0763,-0.0763,-0.0763,-0.0763,0,-0.0734,-0.0736,-0.0737,-0.0739,-0.0741,-0.0743,-0.0745,-0.0745,-0.0747,-0.0749,-0.075,-0.0752,-0.0754,-0.0757,-0.0759,-0.076,-0.0761,-0.076,-0.076,-0.0761,-0.0762,-0.0762,-0.076,-0.076,-0.076,-0.076,-0.076,-0.076,-0.0732,-0.0732,-0.0734,-0.0735,-0.0737,-0.0739,-0.074,-0.0741,-0.0743,-0.0745,-0.0747,-0.0749,-0.0752,-0.0754,-0.0757,-0.0757,-0.0758,-0.0758,-0.0759,-0.076,-0.076,-0.0761,-0.0761,-0.0758,-0.0758,-0.0757,-0.0757,-0.0757]}]]